星链-3141 (STARLINK-3141 )

导读 | 豆包AI

STARLINK-3141是美国太空探索技术公司(SpaceX)星链星座的成员,于2021年11月13日发射升空。它运行在近地轨道,是星链全球卫星互联网计划的一部分,旨在为全球偏远、网络覆盖不足地区提供高速宽带服务,助力实现全球无缝网络覆盖,推动了低轨卫星互联网技术的商业化发展。

基本信息
目录编号:
49459
目录名称:
STARLINK-3141
国际标识:
2021-104BD
轨道中心:
EARTH
卫星名称:
星链-3141
卫星全名:
星链-3141 (STARLINK-3141 )
卫星状态:
在轨 (已飞行1582 天)
发射日期:
2021-11-13 UTC
国别 :
美国 (US)
星等 :
--
轨道信息
数据来源 国际轨道数据
星历时间: 2026-03-13T16:43:17+0800
1天前
查看轨道信息
半长轴: 6917.801km
偏心率: 0.0001216
轨道倾角: 53.216°
近地点辐角 89.506°
升交点赤经 202.630°
平近点角 270.608°
近地点: 538.822km
远地点: 540.506km
周期: 95.436分钟
每日圈数: 15.088663
详细信息
固有亮度:
5
最大亮度:
2.5
卫星平台:
Starlink v1.5
覆盖范围:
全球
运营商:
太空探索技术公司
运营商所在国:
美国
制造商(研发单位):
太空探索技术公司
制造商所在国:
美国
使用方式:
暂无
卫星简介
星链(Starlink)计划是由太空探索技术公司(SpaceX)提出的一个巨型低轨卫星互联网星座项目,计划在2019年至2024年间在太空搭建由约1.2万颗卫星组成的“星链”网络,其中1584颗将部署在地球上空550千米处的近地轨道,并从2020年开始工作。该卫星仍在工作。
2D轨道图
3D轨道图
轨道高度分析图
轨道倾角分析图
轨道综合分析图
查看轨道综合分析图